Location: Orlando
(28.5380°N, 81.3790°W)
Time: 13:16:31
(UTC-04:00)

Tiangong 2 - Visible Passes

Search period start: 19 March 2019 00:00
Search period end: 29 March 2019 00:00
Orbit: 379 x 390 km, 42.8° (Epoch: 18 March)

Date Brightness Start Highest point End Pass type
(mag) Time Alt. Az. Time Alt. Az. Time Alt. Az.
19 Mar 4.0 06:39:47 10° N 06:40:33 11° NNE 06:41:21 10° NNE visible
21 Mar 3.8 06:16:35 10° NNW 06:18:37 16° NNE 06:20:39 10° ENE visible
22 Mar 1.9 06:53:02 10° NW 06:56:08 49° NNE 06:59:13 10° ESE visible
23 Mar 3.0 05:55:31 21° N 05:56:33 25° NNE 05:59:16 10° E visible
24 Mar 1.0 06:31:34 17° WNW 06:33:52 72° SW 06:37:01 10° SE visible
25 Mar 2.9 05:35:31 30° E 05:35:31 30° E 05:37:25 10° ESE visible
26 Mar 2.2 06:11:56 28° SSW 06:11:56 28° SSW 06:14:17 10° SSE visible
26 Mar 3.7 21:02:51 10° SSW 21:03:02 11° S 21:03:02 11° S visible
27 Mar 4.1 21:39:17 10° WSW 21:39:44 13° WSW 21:39:44 13° WSW visible
28 Mar 1.2 20:39:50 10° SW 20:42:52 51° SE 20:44:00 31° E visible
